Weather in Gorodets

Russia / Saint-Petersburg and Leningrad Oblast     58°32′25″N   29°48′34″E
temp.,
°C
wind,
m/s
gust,
m/s
humid.,
%
clouds,
%
prec.,
mm/h
press.,
hPa
HPBL,
m
29 july, thu
thu2900:00+17wsw23965 0.3 100744
03:00+16w259767 0.3 1007100
06:00+16wsw2492100 0.0 100692
09:00+19sw2583100 0.0 1006295
12:00+26wsw474492 0.0 10041644
15:00+25sw3652100 0.0 10031440
18:00+23wsw36730 0.8 10031027
21:00+19sw228515 0.9 100245
30 july, fri
fri3000:00+17wsw23875 0.0 100356
03:00+15wsw2109428 0.0 1003258
06:00+15wsw3109012 0.0 1003293
09:00+19wsw4862100 0.0 1003926
12:00+22sw594817 0.0 10021809
15:00+22wsw5844100 0.0 10011942
18:00+22sw4946100 0.0 10001589
21:00+18ssw39538 0.0 999341
31 july, sat
sat3100:00+18ssw41250100 0.0 9971597
03:00+14ssw61388100 0.4 996939
06:00+15sw4119449 0.4 997761
09:00+17wsw511870 1.2 9971025
12:00+23wsw7114827 0.2 9981956
15:00+25w68396 0.3 9992253
18:00+24w47400 0.0 10012133
21:00+18ssw246831 0.0 100262
1 august, sun
sun100:00+15sw289487 0.0 1003167
03:00+14ssw259798 0.0 1003105
06:00+15s3109551 0.0 1002254
09:00+18s4118070 0.3 1001633
12:00+22sw610643 0.7 10001627
15:00+23sw6105087 0.9 10011817
18:00+24sw6104948 0.0 10012154
21:00+19sw4106299 0.0 1003540
2 august, mon
mon200:00+14wsw2783100 0.0 1003150
03:00+13ssw3109270 0.0 1004231
06:00+14ssw411819 0.0 1004438
09:00+18wsw47595 0.0 1003891
12:00+21wsw4550100 0.1 10031869
15:00+21wnw3453100 0.1 10031386
18:00+19wnw2471100 0.3 1003201
21:00+15nw2489100 0.8 100383